{"data":{"norad_id":66626,"epoch":"2026-09-20T10:08:47.519808Z","epoch_age_seconds":93141,"freshness":"FRESH","line1":"1 66626U 25271K   26263.42277222  .00020037  00000+0  60240-3 0  9996","line2":"2 66626  53.1628 313.8361 0000655  63.1110 296.9959 15.34409434 47407","mean_motion":15.34409434,"eccentricity":6.55e-5,"inclination_deg":53.1628,"raan_deg":313.8361,"arg_perigee_deg":63.111,"mean_anomaly_deg":296.9959,"bstar":0.0006024,"rev_number":4740,"period_min":93.847181077746,"perigee_km":462.22712731551,"apogee_km":463.12327371378,"semimajor_km":6840.8122005146,"source":"CELESTRAK","updated_at":"2026-09-21T09:00:35.983808Z"}}